Back to catalog

CZ-4 DEB

AliveSSO
NORAD 26126·DEBRIS·🇨🇳 China

Launched Oct 14, 1999 from Taiyuan Satellite Launch Center

Loading…

Next Passes (next 24 hours)

TLE

FreshSource: Space-Track

Epoch: Sep 14, 2026, 10:30 UTC

1 26126U 99057N   26257.43754690  .00000640  00000-0  18558-3 0  9997
2 26126  98.6215 313.3276 0092544 268.6268 218.8775 14.45544415388652

Track CZ-4 DEB in real time with AllMySat

Download on the App Store